Weather in Shirsha

Russia / Arkhangel'skaya Oblast'     64°26′43″N   40°44′30″E
temp.,
°C
wind,
m/s
gust,
m/s
humid.,
%
clouds,
%
prec.,
mm/h
press.,
hPa
HPBL,
m
28 november, sun
sun2800:00−17e11100100 0.1 101218
03:00−15ene1399100 0.1 101262
06:00−18ne11100100 0.0 101132
09:00−20ne2310098 0.0 101041
12:00−19nne2599100 0.0 101082
15:00−18n2498100 0.0 100968
18:00−16nne2696100 0.0 1008155
21:00−15nne2795100 0.0 1008177
29 november, mon
mon2900:00−16nnw2396100 0.0 100852
03:00−16nnw2495100 0.0 100971
06:00−19nnw1199100 0.0 101112
09:00−20nnw229868 0.0 101331
12:00−20nnw119789 0.0 10159
15:00−21nne11985 0.0 10159
18:00−22e119867 0.0 10169
21:00−23e1199100 0.0 10159
30 november, tue
tue3000:00−21e219976 0.0 101427
03:00−15ene31093100 0.0 1011247
06:00−14ene41388100 0.0 1008393
09:00−14ene51585100 0.0 1004488
12:00−14ene51583100 0.0 1000534
15:00−13ene51584100 0.0 996584
18:00−12ene51583100 0.0 992585
21:00−12ene51478100 0.0 989584
1 december, wed
wed100:00−10ene51485100 0.0 986658
03:00−9ene41293100 0.2 984661
06:00−9ene41093100 0.6 984619
09:00−9ene3993100 0.9 984543
12:00−9ne389494 0.2 984501
15:00−9ne2795100 0.6 984406
18:00−8ne2596100 0.6 984264
21:00−8nne1397100 1.1 984112
2 december, thu
thu200:00−8nne1297100 0.8 98489
03:00−8wnw0197100 1.4 98453
06:00−8w1297100 1.0 98499
09:00−8ssw1297100 2.1 984107
12:00−8sse1297100 0.6 985186
15:00−8se1198100 1.1 98628
18:00−9ese119792 0.3 98825
21:00−10ese1198100 0.4 98917